FENGYUN 1C DEB

Satellite information

Favourite Embed

Satellite Type and Status

DEBRISIN ORBIT

Key statistics

Satellite FENGYUN 1C DEB at a glance.

Uptime

9662

Days in orbit

Revolutions

≈ 14.3

Per day

Orbit

SSO

Sun Synchronous Orbit

Inclination

99.3

Latest

Satellite identification and parameters

Extended collection of information and parameters for FENGYUN 1C DEB.

Object identification

Identified? True

Debris? True

Object name: FENGYUN 1C DEB

International designator: 1999-025DUD

Object number (NORAD): 36204

Object ID (CCSDS): 36204

Country: PEOPLES REPUBLIC OF CHINA (PRC)

Current information (Y/N): Y

RCS size: SMALL

Orbital parameters

Period: 100.417 minutes

Inclination: 99.292 deg

SMA: 7156.473 km

Apoapsis: 791.158 km

Periapsis: 765.517 km

RAAN: 25.0191 deg

Eccentricy: 0.00179148

Argument of periapsis: 320.2779 deg

Mean anomaly: 39.709 deg

Mean motion: 14.34016818 rev/day

Mean motion (dot): 0.00005605 rev/day2

B* drag term: 0.00202 1/REarth

Two-line elements (TLE)

Creation date: Oct. 19, 2025, 10:30 a.m.

Reference frame: TEME

Reference center: EARTH

Epoch: Oct. 19, 2025, 12:07 a.m. UTC

TLE line 0: 0 FENGYUN 1C DEB

TLE line 1: 1 36204U 99025DUD 25292.00510583 .00005605 00000-0 20200-2 0 9994

TLE line 2: 2 36204 99.2920 25.0191 0017915 320.2779 39.7090 14.34016818936438

Live tracking on map

Real-time ground track for satellite FENGYUN 1C DEB.

In-orbit conjunctions

A list of the most updated potential collisions computed for object FENGYUN 1C DEB.

Target Orbit TCA Probability of collision Miss distance Type
THORAD AGENA D DEB LEO 2025-05-09 12:47:41 0.0001082202 167.0 (m) DEBRIS
CZ-6A DEB LEO 2024-12-13 05:15:38 0.000201247 546.0 (m) DEBRIS

Associated space launch

Chinese polar orbiting meteorological satellite

FENGYUN 1C DEB was lifted into orbit during the mission ‘Long March 4B | Feng Yun 1C’, on board a Long March 4B space rocket.

The launch took place on May 10, 1999, 1:33 a.m. from Launch Complex 7.

For more information about the launch, click the button.

Launch to space Long March 4B | Feng Yun 1C
Long March 4B | Feng Yun 1C

Agency: N/A

Status: Launch Successful

Launch date: May 10, 1999, 1:33 a.m. UTC

Rocket: Long March 4B

Launch pad: Launch Complex 7

Location: Taiyuan Satellite Launch Center, People's Republic of China

...

Latest news about this satellite

There are no fresh news available about this satellite. Check back as we update our databases every day.


Newsletter sign-up

Weekly statistics, charts and insights to help you stay on top of the space industry.